• En España
  • Lista de países
  • Para 7 días
  • Temperatura del agua
  • Mapa Satelital
  • El tiempo en el mapa
  • Informadores
  • user-avatar
    Iniciar sesión

    Tiempo cada hora Korçe

    Hoy, 16 Diciembre, Sábado

    Tiempo Temperatura Precipitaciones Viento Presión Humedad
    00:00 +5°C° 0,1 mm 4 mps 662 mmHg 93%
    01:00 +5°C° 0 mm 5 mps 661 mmHg 93%
    02:00 +5°C° 0,1 mm 5 mps 661 mmHg 93%
    03:00 +5°C° 0,1 mm 5 mps 661 mmHg 93%
    04:00 +5°C° 0,1 mm 5 mps 661 mmHg 93%
    05:00 +5°C° 0,1 mm 4 mps 660 mmHg 93%
    06:00 +5°C° 0,1 mm 4 mps 660 mmHg 93%
    07:00 +5°C° 0 mm 3 mps 660 mmHg 93%
    08:00 +6°C° 0,2 mm 4 mps 660 mmHg 91%
    09:00 +6°C° 0,2 mm 4 mps 660 mmHg 88%
    10:00 +7°C° 0,2 mm 5 mps 661 mmHg 85%
    11:00 +7°C° 0,8 mm 4 mps 660 mmHg 86%
    12:00 +6°C° 0,8 mm 4 mps 660 mmHg 86%
    13:00 +6°C° 0,8 mm 4 mps 660 mmHg 87%
    14:00 +7°C° 1,3 mm 3 mps 660 mmHg 89%
    15:00 +5°C° 1,3 mm 3 mps 660 mmHg 91%
    16:00 +5°C° 1,3 mm 3 mps 660 mmHg 93%
    17:00 +5°C° 0,8 mm 2 mps 660 mmHg 94%
    18:00 +5°C° 0,8 mm 2 mps 660 mmHg 94%
    19:00 +5°C° 0,8 mm 2 mps 660 mmHg 94%
    20:00 +5°C° 0,7 mm 2 mps 660 mmHg 95%
    21:00 +6°C° 0,7 mm 1 mps 660 mmHg 95%
    22:00 +6°C° 0,7 mm 1 mps 660 mmHg 95%
    23:00 +6°C° 1,1 mm 1 mps 660 mmHg 95%

    Mañana, 17 Diciembre, Domingo

    Tiempo Temperatura Precipitaciones Viento Presión Humedad
    00:00 +6°C° 1,1 mm 1 mps 660 mmHg 95%
    01:00 +6°C° 1,1 mm 1 mps 660 mmHg 95%
    02:00 +5°C° 1,1 mm 1 mps 660 mmHg 95%
    03:00 +5°C° 1,1 mm 1 mps 660 mmHg 95%
    04:00 +5°C° 1,1 mm 1 mps 660 mmHg 95%
    05:00 +5°C° 0,4 mm 1 mps 661 mmHg 94%
    06:00 +5°C° 0,4 mm 1 mps 661 mmHg 93%
    07:00 +4°C° 0,4 mm 2 mps 661 mmHg 93%
    08:00 +4°C° 0,3 mm 2 mps 661 mmHg 87%
    09:00 +4°C° 0,3 mm 2 mps 662 mmHg 82%
    10:00 +5°C° 0,3 mm 2 mps 662 mmHg 77%
    11:00 +5°C° 0,2 mm 2 mps 662 mmHg 74%
    12:00 +5°C° 0,2 mm 2 mps 662 mmHg 71%
    13:00 +4°C° 0,2 mm 3 mps 662 mmHg 69%
    14:00 +5°C° 0,2 mm 2 mps 662 mmHg 73%
    15:00 +4°C° 0,2 mm 2 mps 662 mmHg 77%
    16:00 +3°C° 0,2 mm 2 mps 662 mmHg 81%
    17:00 +3°C° 0,1 mm 1 mps 663 mmHg 83%
    18:00 +3°C° 0,1 mm 1 mps 663 mmHg 86%
    19:00 +2°C° 0,1 mm 1 mps 663 mmHg 89%
    20:00 +2°C° 0,1 mm 1 mps 664 mmHg 89%
    21:00 +2°C° 0,1 mm 1 mps 664 mmHg 89%
    22:00 +2°C° 0,1 mm 1 mps 664 mmHg 89%
    23:00 +1°C° 0,1 mm 1 mps 664 mmHg 89%

    Pasado mañana, 18 Diciembre, Lunes

    Tiempo Temperatura Precipitaciones Viento Presión Humedad
    00:00 +1°C° 0,1 mm 1 mps 664 mmHg 89%
    01:00 +1°C° 0,1 mm 1 mps 664 mmHg 90%
    02:00 +1°C° 0,2 mm 1 mps 664 mmHg 90%
    03:00 +1°C° 0,2 mm 1 mps 664 mmHg 90%
    04:00 +1°C° 0,2 mm 1 mps 664 mmHg 90%
    05:00 0°C° 0,1 mm 1 mps 664 mmHg 90%
    06:00 0°C° 0,1 mm 1 mps 665 mmHg 89%
    07:00 0°C° 0,1 mm 1 mps 665 mmHg 89%
    08:00 +1°C° 0,2 mm 1 mps 665 mmHg 84%
    09:00 +1°C° 0,2 mm 2 mps 666 mmHg 78%
    10:00 +2°C° 0,2 mm 2 mps 666 mmHg 73%
    11:00 +2°C° 0,3 mm 2 mps 666 mmHg 71%
    12:00 +2°C° 0,3 mm 2 mps 665 mmHg 70%
    13:00 +2°C° 0,3 mm 2 mps 665 mmHg 69%
    14:00 +1°C° 0,6 mm 2 mps 665 mmHg 74%
    15:00 -1°C° 0,6 mm 2 mps 665 mmHg 79%
    16:00 -1°C° 0,6 mm 2 mps 665 mmHg 84%
    17:00 -2°C° 0,2 mm 2 mps 665 mmHg 86%
    18:00 -2°C° 0,2 mm 2 mps 665 mmHg 88%
    19:00 -1°C° 0,2 mm 1 mps 666 mmHg 91%
    20:00 -1°C° 0 mm 1 mps 666 mmHg 91%
    21:00 -2°C° 0 mm 1 mps 666 mmHg 91%
    22:00 -2°C° 0 mm 1 mps 666 mmHg 91%
    23:00 -3°C° 0 mm 1 mps 667 mmHg 90%

    19 Diciembre, Martes

    Tiempo Temperatura Precipitaciones Viento Presión Humedad
    00:00 -3°C° 0 mm 1 mps 667 mmHg 90%
    01:00 -3°C° 0 mm 1 mps 667 mmHg 89%
    02:00 -3°C° 0 mm 1 mps 667 mmHg 88%
    03:00 -4°C° 0 mm 1 mps 667 mmHg 87%
    04:00 -4°C° 0 mm 1 mps 667 mmHg 86%
    05:00 -4°C° 0 mm 1 mps 668 mmHg 86%
    06:00 -4°C° 0 mm 1 mps 668 mmHg 85%
    07:00 -4°C° 0 mm 1 mps 669 mmHg 84%
    08:00 -3°C° 0 mm 1 mps 669 mmHg 78%
    09:00 -2°C° 0 mm 1 mps 670 mmHg 72%
    10:00 0°C° 0 mm 1 mps 671 mmHg 65%
    11:00 0°C° 0 mm 1 mps 671 mmHg 63%
    12:00 -2°C° 0 mm 2 mps 671 mmHg 61%
    13:00 -1°C° 0 mm 2 mps 671 mmHg 59%
    14:00 -2°C° 0 mm 2 mps 671 mmHg 64%
    15:00 -2°C° 0 mm 2 mps 671 mmHg 68%
    16:00 -3°C° 0 mm 2 mps 671 mmHg 72%
    17:00 -4°C° 0 mm 2 mps 671 mmHg 74%
    18:00 -4°C° 0 mm 2 mps 671 mmHg 77%
    19:00 -5°C° 0 mm 2 mps 671 mmHg 79%
    20:00 -5°C° 0 mm 2 mps 671 mmHg 80%
    21:00 -5°C° 0 mm 2 mps 672 mmHg 81%
    22:00 -3°C° 0 mm 1 mps 672 mmHg 81%
    23:00 -4°C° 0 mm 1 mps 672 mmHg 81%

    20 Diciembre, Miércoles

    Tiempo Temperatura Precipitaciones Viento Presión Humedad
    00:00 -4°C° 0 mm 1 mps 672 mmHg 81%
    01:00 -4°C° 0 mm 1 mps 672 mmHg 81%
    02:00 -4°C° 0 mm 1 mps 671 mmHg 81%
    03:00 -4°C° 0 mm 1 mps 671 mmHg 80%
    04:00 -4°C° 0 mm 1 mps 671 mmHg 80%
    05:00 -4°C° 0 mm 1 mps 671 mmHg 79%
    06:00 -4°C° 0 mm 1 mps 671 mmHg 78%
    07:00 -4°C° 0 mm 1 mps 671 mmHg 78%
    08:00 -3°C° 0 mm 1 mps 672 mmHg 71%
    09:00 -2°C° 0 mm 1 mps 672 mmHg 64%
    10:00 0°C° 0 mm 1 mps 673 mmHg 57%
    11:00 0°C° 0 mm 1 mps 672 mmHg 55%
    12:00 +1°C° 0 mm 1 mps 672 mmHg 53%
    13:00 -1°C° 0 mm 2 mps 672 mmHg 50%
    14:00 -2°C° 0 mm 2 mps 671 mmHg 55%
    15:00 -3°C° 0 mm 2 mps 671 mmHg 60%
    16:00 -3°C° 0 mm 2 mps 671 mmHg 65%
    17:00 -4°C° 0 mm 2 mps 671 mmHg 67%
    18:00 -3°C° 0 mm 1 mps 671 mmHg 69%
    19:00 -4°C° 0 mm 1 mps 671 mmHg 71%
    20:00 -4°C° 0 mm 1 mps 671 mmHg 71%
    21:00 -4°C° 0 mm 1 mps 671 mmHg 70%
    22:00 -4°C° 0 mm 1 mps 671 mmHg 70%
    23:00 -4°C° 0 mm 1 mps 671 mmHg 69%

    21 Diciembre, Jueves

    Tiempo Temperatura Precipitaciones Viento Presión Humedad
    00:00 -4°C° 0 mm 1 mps 671 mmHg 68%
    01:00 -4°C° 0 mm 1 mps 671 mmHg 67%
    02:00 -3°C° 0 mm 1 mps 670 mmHg 68%
    03:00 -3°C° 0 mm 1 mps 670 mmHg 69%
    04:00 -3°C° 0 mm 1 mps 670 mmHg 70%
    05:00 -3°C° 0 mm 1 mps 671 mmHg 72%
    06:00 -3°C° 0 mm 1 mps 671 mmHg 73%
    07:00 -3°C° 0 mm 1 mps 671 mmHg 75%
    08:00 -1°C° 0 mm 1 mps 672 mmHg 69%
    09:00 0°C° 0 mm 1 mps 672 mmHg 63%
    10:00 +2°C° 0 mm 1 mps 673 mmHg 57%
    11:00 +3°C° 0 mm 1 mps 673 mmHg 56%
    12:00 +4°C° 0 mm 1 mps 673 mmHg 54%
    13:00 +4°C° 0 mm 1 mps 673 mmHg 52%
    14:00 +3°C° 0 mm 1 mps 673 mmHg 58%
    15:00 +2°C° 0 mm 1 mps 673 mmHg 64%
    16:00 +1°C° 0 mm 1 mps 672 mmHg 70%
    17:00 0°C° 0 mm 1 mps 673 mmHg 71%
    18:00 0°C° 0 mm 1 mps 673 mmHg 72%
    19:00 -1°C° 0 mm 1 mps 673 mmHg 73%
    20:00 -1°C° 0 mm 1 mps 673 mmHg 73%
    21:00 -1°C° 0 mm 1 mps 673 mmHg 72%
    22:00 -1°C° 0 mm 1 mps 673 mmHg 72%
    23:00 0°C° 0 mm 1 mps 673 mmHg 71%
    Mostrar más